Terminal Aerodrome Forecast
Issued by NWS

Home | Current Version | Previous Version | Graphics & Text | Print | Product List | Glossary On
Versions: 1 2 3 4 5 6 7 8 9 10 11 12 13 14 15 16
000
FTUS42 KMHX 290531
TAFPGV
TAF
KPGV 290531Z 2906/3006 VRB03KT P6SM SCT005 BKN050
     FM290800 VRB03KT 3SM BR BKN005
     FM291400 04008KT P6SM BKN040
      AMD LTD TO CLD VIS AND WIND=

USA.gov is the U.S. government's official web portal to all federal, state and local government web resources and services.